Location: Eitze
(52.9840°N, 9.6894°E)
Time: 20:41:06
(UTC+00:00)

Cosmos 2173 Rocket - Pass Details

Date: 19 May 2025
Orbit: 944 x 999 km, 83.0° (Epoch: 15 June)

Event Time Altitude Azimuth Distance (km) Brightness Sun altitude
Rises 23:08:39 0° 350° (N) 3,734 8.8 -17.0°
Reaches altitude 10° 23:11:14 10° 354° (N) 2,777 7.7 -17.0°
Maximum altitude 23:17:34 64° 76° (ENE) 1,090 4.3 -17.0°
Enters shadow 23:21:47 22° 152° (SSE) 2,012 5.1 -17.0°
